Time,TemperatureF,DewpointF,PressureIn,WindDirection,WindDirectionDegrees,WindSpeedMPH,WindSpeedGustMPH,Humidity,HourlyPrecipIn,Conditions,Clouds,dailyrainin,SoftwareType,DateUTC
2013-08-15 00:12:00,60.0,52.0,29.81,NNW,339,8.0,16.0,75,0.00,,,0.00,,2013-08-15 04:12:00,
2013-08-15 00:23:00,60.0,53.0,29.81,NW,319,5.0,11.0,77,0.00,,,0.00,,2013-08-15 04:23:00,
2013-08-15 00:43:00,59.0,52.0,29.81,NNE,17,4.0,10.0,77,0.00,,,0.00,,2013-08-15 04:43:00,
2013-08-15 00:52:00,59.0,52.0,29.82,NW,314,5.0,9.0,77,0.00,,,0.00,,2013-08-15 04:52:00,
2013-08-15 01:12:00,59.0,51.0,29.83,WNW,294,4.0,12.0,76,0.00,,,0.00,,2013-08-15 05:12:00,
2013-08-15 01:22:00,59.0,51.0,29.84,WNW,296,0.0,6.0,76,0.00,,,0.00,,2013-08-15 05:22:00,
2013-08-15 01:52:00,58.0,52.0,29.84,West,281,3.0,8.0,79,0.00,,,0.00,,2013-08-15 05:52:00,
2013-08-15 02:11:00,57.0,51.0,29.84,West,274,3.0,6.0,81,0.00,,,0.00,,2013-08-15 06:11:00,
2013-08-15 02:21:00,57.0,51.0,29.84,West,274,3.0,6.0,81,0.00,,,0.00,,2013-08-15 06:21:00,
2013-08-15 02:42:00,57.0,53.0,29.85,West,273,3.0,8.0,86,0.00,,,0.00,,2013-08-15 06:42:00,
2013-08-15 02:52:00,57.0,52.0,29.85,West,262,4.0,10.0,84,0.00,,,0.00,,2013-08-15 06:52:00,
2013-08-15 03:11:00,57.0,52.0,29.85,WSW,253,4.0,11.0,83,0.00,,,0.00,,2013-08-15 07:11:00,
2013-08-15 03:21:00,56.0,52.0,29.85,WSW,246,4.0,8.0,85,0.00,,,0.00,,2013-08-15 07:21:00,
2013-08-15 03:42:00,56.0,52.0,29.86,WSW,243,4.0,8.0,85,0.00,,,0.00,,2013-08-15 07:42:00,
2013-08-15 03:52:00,56.0,52.0,29.87,WSW,258,3.0,8.0,85,0.00,,,0.00,,2013-08-15 07:52:00,
2013-08-15 04:11:00,56.0,52.0,29.87,West,265,2.0,7.0,85,0.00,,,0.00,,2013-08-15 08:11:00,
2013-08-15 04:21:00,56.0,52.0,29.88,West,269,3.0,8.0,86,0.00,,,0.00,,2013-08-15 08:21:00,
2013-08-15 04:42:00,56.0,52.0,29.88,WNW,284,2.0,7.0,87,0.00,,,0.00,,2013-08-15 08:42:00,
2013-08-15 04:52:00,56.0,52.0,29.88,WSW,238,3.0,8.0,87,0.00,,,0.00,,2013-08-15 08:52:00,
2013-08-15 05:11:00,55.0,52.0,29.89,West,263,2.0,7.0,88,0.00,,,0.00,,2013-08-15 09:11:00,
2013-08-15 05:21:00,55.0,52.0,29.89,West,266,2.0,7.0,89,0.00,,,0.00,,2013-08-15 09:21:00,
2013-08-15 05:42:00,55.0,52.0,29.90,West,266,3.0,5.0,88,0.00,,,0.00,,2013-08-15 09:42:00,
2013-08-15 05:53:00,56.0,52.0,29.90,West,266,2.0,5.0,87,0.00,,,0.00,,2013-08-15 09:53:00,
2013-08-15 06:12:00,55.0,51.0,29.91,WSW,258,3.0,8.0,87,0.00,,,0.00,,2013-08-15 10:12:00,
2013-08-15 06:22:00,56.0,52.0,29.91,West,278,4.0,11.0,87,0.00,,,0.00,,2013-08-15 10:22:00,
2013-08-15 06:42:00,57.0,53.0,29.92,West,260,5.0,9.0,85,0.00,,,0.00,,2013-08-15 10:42:00,
2013-08-15 06:52:00,57.0,53.0,29.93,West,259,2.0,8.0,85,0.00,,,0.00,,2013-08-15 10:52:00,
2013-08-15 07:12:00,57.0,53.0,29.93,WSW,247,3.0,8.0,85,0.00,,,0.00,,2013-08-15 11:12:00,
2013-08-15 07:22:00,58.0,53.0,29.94,WSW,258,5.0,9.0,83,0.00,,,0.00,,2013-08-15 11:22:00,
2013-08-15 07:42:00,58.0,53.0,29.95,WSW,252,6.0,12.0,83,0.00,,,0.00,,2013-08-15 11:42:00,
2013-08-15 07:52:00,59.0,54.0,29.95,WSW,258,5.0,14.0,83,0.00,,,0.00,,2013-08-15 11:52:00,
2013-08-15 08:11:00,59.0,54.0,29.96,WSW,237,6.0,11.0,82,0.00,,,0.00,,2013-08-15 12:11:00,
2013-08-15 08:21:00,60.0,54.0,29.96,West,279,7.0,14.0,80,0.00,,,0.00,,2013-08-15 12:21:00,
2013-08-15 08:42:00,60.0,54.0,29.96,West,261,6.0,14.0,80,0.00,,,0.00,,2013-08-15 12:42:00,
2013-08-15 08:52:00,61.0,55.0,29.96,WSW,250,4.0,12.0,80,0.00,,,0.00,,2013-08-15 12:52:00,
2013-08-15 09:11:00,62.0,55.0,29.96,West,268,5.0,11.0,77,0.00,,,0.00,,2013-08-15 13:11:00,
2013-08-15 09:21:00,63.0,54.0,29.97,West,275,5.0,11.0,72,0.00,,,0.00,,2013-08-15 13:21:00,
2013-08-15 09:42:00,65.0,55.0,29.97,WNW,298,3.0,14.0,69,0.00,,,0.00,,2013-08-15 13:42:00,
2013-08-15 09:52:00,66.0,55.0,29.97,NW,318,7.0,10.0,67,0.00,,,0.00,,2013-08-15 13:52:00,
2013-08-15 10:13:00,66.0,55.0,29.97,NW,309,6.0,12.0,68,0.00,,,0.00,,2013-08-15 14:13:00,
2013-08-15 10:22:00,66.0,55.0,29.97,WNW,289,5.0,11.0,67,0.00,,,0.00,,2013-08-15 14:22:00,
2013-08-15 10:45:00,67.0,55.0,29.97,WNW,300,5.0,11.0,65,0.00,,,0.00,,2013-08-15 14:45:00,
2013-08-15 10:54:00,67.0,54.0,29.97,NNW,337,7.0,14.0,64,0.00,,,0.00,,2013-08-15 14:54:00,
2013-08-15 11:23:00,68.0,54.0,29.98,West,276,5.0,13.0,62,0.00,,,0.00,,2013-08-15 15:23:00,
2013-08-15 11:43:00,66.0,56.0,29.98,West,266,4.0,13.0,71,0.00,,,0.00,,2013-08-15 15:43:00,
2013-08-15 11:54:00,65.0,56.0,29.98,West,261,6.0,13.0,73,0.00,,,0.00,,2013-08-15 15:54:00,
2013-08-15 12:35:00,-999.0,-99.9,29.97,SW,223,5.0,5.0,-999,0.00,,,0.00,,2013-08-15 16:35:00,
2013-08-15 12:44:00,-999.0,-99.9,29.97,SW,223,5.0,5.0,-999,0.00,,,0.00,,2013-08-15 16:44:00,
2013-08-15 12:55:00,65.0,56.0,29.97,WSW,258,6.0,12.0,74,0.00,,,0.00,,2013-08-15 16:55:00,
2013-08-15 13:18:00,65.0,57.0,29.97,West,261,6.0,13.0,75,0.00,,,0.00,,2013-08-15 17:18:00,
2013-08-15 13:31:00,65.0,-99.9,29.97,West,259,8.0,15.0,75,0.00,,,0.00,,2013-08-15 17:31:00,
2013-08-15 13:55:00,66.0,57.0,29.97,West,266,6.0,12.0,73,0.00,,,0.00,,2013-08-15 17:55:00,
2013-08-15 14:28:00,67.0,58.0,29.96,WNW,288,4.0,11.0,73,0.00,,,0.00,,2013-08-15 18:28:00,
2013-08-15 14:36:00,-999.0,-99.9,29.97,West,269,5.0,11.0,-999,0.00,,,0.00,,2013-08-15 18:36:00,
2013-08-15 14:49:00,66.0,56.0,29.96,West,275,5.0,14.0,71,0.00,,,0.00,,2013-08-15 18:49:00,
2013-08-15 15:06:00,-999.0,-99.9,29.96,WSW,253,6.0,17.0,-999,0.00,,,0.00,,2013-08-15 19:06:00,
2013-08-15 15:17:00,66.0,57.0,29.96,West,268,4.0,10.0,74,0.00,,,0.00,,2013-08-15 19:17:00,
2013-08-15 15:34:00,-999.0,-99.9,29.96,West,275,4.0,14.0,-999,-99.99,,,-99.99,,2013-08-15 19:34:00,
2013-08-15 15:49:00,67.0,57.0,29.96,WNW,289,4.0,14.0,71,0.00,,,0.00,,2013-08-15 19:49:00,
2013-08-15 16:33:00,69.0,57.0,29.97,West,264,5.0,11.0,66,0.00,,,0.00,,2013-08-15 20:33:00,
2013-08-15 16:55:00,68.0,57.0,29.96,SW,231,4.0,14.0,69,0.00,,,0.00,,2013-08-15 20:55:00,
2013-08-15 17:17:00,68.0,57.0,29.96,WNW,301,7.0,14.0,69,0.00,,,0.00,,2013-08-15 21:17:00,
2013-08-15 17:40:00,68.0,58.0,29.96,WSW,250,6.0,15.0,71,0.00,,,0.00,,2013-08-15 21:40:00,
2013-08-15 17:57:00,67.0,58.0,29.96,WSW,250,7.0,17.0,72,0.00,,,0.00,,2013-08-15 21:57:00,
2013-08-15 18:17:00,67.0,59.0,29.96,West,277,4.0,10.0,75,0.00,,,0.00,,2013-08-15 22:17:00,
2013-08-15 18:29:00,66.0,58.0,29.96,WSW,240,5.0,10.0,75,0.00,,,0.00,,2013-08-15 22:29:00,
2013-08-15 18:58:00,66.0,58.0,29.97,SW,231,4.0,10.0,76,0.00,,,0.00,,2013-08-15 22:58:00,
2013-08-15 19:16:00,65.0,58.0,29.97,SW,236,6.0,14.0,79,0.00,,,0.00,,2013-08-15 23:16:00,
2013-08-15 19:35:00,-999.0,-99.9,29.97,WSW,252,5.0,12.0,81,0.00,,,0.00,,2013-08-15 23:35:00,
2013-08-15 19:55:00,63.0,58.0,29.98,SW,215,6.0,12.0,85,0.00,,,0.00,,2013-08-15 23:55:00,
2013-08-15 20:12:00,61.0,57.0,29.98,SW,232,6.0,11.0,87,0.00,,,0.00,,2013-08-16 00:12:00,
2013-08-15 20:24:00,61.0,57.0,29.99,WSW,238,6.0,10.0,88,0.00,,,0.00,,2013-08-16 00:24:00,
2013-08-15 20:46:00,60.0,57.0,30.00,SW,228,5.0,10.0,89,0.00,,,0.00,,2013-08-16 00:46:00,
2013-08-15 20:52:00,60.0,57.0,30.01,SW,235,6.0,10.0,90,0.00,,,0.00,,2013-08-16 00:52:00,
2013-08-15 21:21:00,60.0,57.0,30.02,SW,233,5.0,8.0,89,0.00,,,0.00,,2013-08-16 01:21:00,
2013-08-15 21:26:00,60.0,57.0,30.02,SW,224,6.0,10.0,90,0.00,,,0.00,,2013-08-16 01:26:00,
2013-08-15 21:43:00,-999.0,-99.9,30.03,SW,225,6.0,-999.0,-999,-99.99,,,-99.99,,2013-08-16 01:43:00,
2013-08-15 21:54:00,60.0,57.0,30.03,SW,218,7.0,10.0,90,0.00,,,0.00,,2013-08-16 01:54:00,
2013-08-15 22:12:00,60.0,57.0,30.04,SW,223,6.0,8.0,90,0.00,,,0.00,,2013-08-16 02:12:00,
2013-08-15 22:21:00,60.0,57.0,30.04,WSW,240,7.0,12.0,90,0.00,,,0.00,,2013-08-16 02:21:00,
2013-08-15 22:44:00,60.0,57.0,30.05,SW,235,6.0,11.0,89,0.00,,,0.00,,2013-08-16 02:44:00,
2013-08-15 22:52:00,60.0,57.0,30.04,SW,236,6.0,9.0,90,0.00,,,0.00,,2013-08-16 02:52:00,
2013-08-15 23:11:00,60.0,57.0,30.05,SW,235,6.0,11.0,90,0.00,,,0.00,,2013-08-16 03:11:00,
2013-08-15 23:22:00,60.0,57.0,30.05,SW,219,6.0,9.0,91,0.00,,,0.00,,2013-08-16 03:22:00,
2013-08-15 23:43:00,60.0,57.0,30.05,WSW,239,6.0,10.0,91,0.00,,,0.00,,2013-08-16 03:43:00,
2013-08-15 23:53:00,60.0,57.0,30.05,SW,226,6.0,10.0,91,0.00,,,0.00,,2013-08-16 03:53:00,